TAM455 SBGL-SBSV

Flight info

Callsign TAM455
Flight time 1h 36m
Altitude 37000
Route IMBAP UZ42 SIRAP DCT OSAGU DCT ZUMBA
Aircraft A320/M-SDE3FGHIRWY/LB1

Departure

Time 2026-04-30 12:26
Airport Rio Galeão – Tom Jobim International Airport (SBGL)

Arrival

Time 2026-04-30 14:03
Airport Deputado Luiz Eduardo Magalhães International Airport (SBSV)
Time Latitude Longitude Altitude Speed Heading
2026-04-30 12:09 -22.81164 -43.25287 22 ft 0 kts 56°
2026-04-30 12:16 -22.81168 -43.25293 22 ft 2 kts 56°
2026-04-30 12:16 -22.81177 -43.25309 23 ft 2 kts 56°
2026-04-30 12:16 -22.81187 -43.25324 22 ft 2 kts 81°
2026-04-30 12:17 -22.81206 -43.25341 21 ft 0 kts 325°
2026-04-30 12:20 -22.81200 -43.25346 25 ft 6 kts 325°
2026-04-30 12:20 -22.81125 -43.25377 22 ft 13 kts 347°
2026-04-30 12:20 -22.81044 -43.25385 23 ft 11 kts 359°
2026-04-30 12:21 -22.80977 -43.25386 23 ft 8 kts 335°
2026-04-30 12:21 -22.80948 -43.25427 23 ft 5 kts 294°
2026-04-30 12:21 -22.80939 -43.25448 28 ft 6 kts 294°
2026-04-30 12:21 -22.80902 -43.25534 27 ft 16 kts 296°
2026-04-30 12:22 -22.80843 -43.25651 28 ft 16 kts 303°
2026-04-30 12:22 -22.80772 -43.25684 28 ft 10 kts 13°
2026-04-30 12:22 -22.80683 -43.25620 29 ft 19 kts 34°
2026-04-30 12:22 -22.80573 -43.25543 29 ft 18 kts 32°
2026-04-30 12:23 -22.80501 -43.25551 31 ft 9 kts 326°
2026-04-30 12:23 -22.80451 -43.25588 30 ft 8 kts 324°
2026-04-30 12:23 -22.80414 -43.25614 29 ft 6 kts 333°
2026-04-30 12:23 -22.80354 -43.25599 27 ft 13 kts 33°
2026-04-30 12:24 -22.80342 -43.25590 27 ft 0 kts 37°
2026-04-30 12:24 -22.80336 -43.25585 27 ft 7 kts 36°
2026-04-30 12:24 -22.80254 -43.25516 27 ft 13 kts 37°
2026-04-30 12:25 -22.80214 -43.25487 27 ft 8 kts 29°
2026-04-30 12:25 -22.80171 -43.25440 25 ft 8 kts 70°
2026-04-30 12:25 -22.80168 -43.25431 26 ft 0 kts 73°
2026-04-30 12:25 -22.80113 -43.25225 26 ft 71 kts 75°
2026-04-30 12:26 -22.79993 -43.24755 29 ft 124 kts 74°
2026-04-30 12:26 -22.79697 -43.23621 30 ft 185 kts 75°
2026-04-30 12:26 -22.79227 -43.21722 874 ft 199 kts 77°
2026-04-30 12:26 -22.78926 -43.20266 1737 ft 198 kts 77°
2026-04-30 12:27 -22.78620 -43.18746 2067 ft 217 kts 77°
2026-04-30 12:27 -22.78394 -43.17638 2326 ft 229 kts 77°
2026-04-30 12:27 -22.78026 -43.15859 2682 ft 254 kts 76°
2026-04-30 12:27 -22.77627 -43.13967 3294 ft 266 kts 76°
2026-04-30 12:28 -22.77204 -43.12000 4141 ft 270 kts 76°
2026-04-30 12:28 -22.76770 -43.10007 4978 ft 274 kts 75°
2026-04-30 12:28 -22.76328 -43.07992 5783 ft 277 kts 76°
2026-04-30 12:28 -22.75838 -43.05966 6599 ft 279 kts 68°
2026-04-30 12:29 -22.74455 -43.03618 7570 ft 284 kts 43°
2026-04-30 12:29 -22.72833 -43.02395 8284 ft 287 kts 23°
2026-04-30 12:29 -22.70901 -43.01820 9014 ft 291 kts
2026-04-30 12:29 -22.68904 -43.01395 9747 ft 295 kts 12°
2026-04-30 12:30 -22.67573 -43.01071 10205 ft 297 kts 12°
2026-04-30 12:30 -22.65513 -43.00542 10542 ft 316 kts 13°
2026-04-30 12:30 -22.63298 -42.99963 10692 ft 339 kts 12°
2026-04-30 12:30 -22.60935 -42.99348 10876 ft 358 kts 13°
2026-04-30 12:31 -22.58489 -42.98719 11376 ft 365 kts 12°
2026-04-30 12:31 -22.55194 -42.97886 12188 ft 369 kts 12°
2026-04-30 12:31 -22.53494 -42.97462 12604 ft 371 kts 11°
2026-04-30 12:31 -22.50141 -42.96633 13405 ft 375 kts 11°
2026-04-30 12:32 -22.48452 -42.96219 13800 ft 377 kts 11°
2026-04-30 12:32 -22.45883 -42.95589 14306 ft 381 kts 11°
2026-04-30 12:32 -22.43283 -42.94949 14818 ft 384 kts 11°
2026-04-30 12:32 -22.40666 -42.94302 15313 ft 387 kts 10°
2026-04-30 12:33 -22.38029 -42.93651 15822 ft 390 kts 10°
2026-04-30 12:33 -22.35375 -42.92997 16309 ft 393 kts
2026-04-30 12:33 -22.32671 -42.92544 16794 ft 393 kts 360°
2026-04-30 12:33 -22.29952 -42.92641 17264 ft 391 kts 349°
2026-04-30 12:34 -22.27251 -42.93083 17723 ft 394 kts 348°
2026-04-30 12:34 -22.24568 -42.93533 18069 ft 397 kts 348°
2026-04-30 12:34 -22.21843 -42.93985 18149 ft 396 kts 348°
2026-04-30 12:34 -22.19101 -42.94339 18153 ft 399 kts 355°
2026-04-30 12:35 -22.16324 -42.94106 18145 ft 404 kts
2026-04-30 12:35 -22.13620 -42.93181 18391 ft 413 kts 21°
2026-04-30 12:35 -22.11101 -42.91635 18791 ft 419 kts 29°
2026-04-30 12:35 -22.08643 -42.89937 19200 ft 421 kts 29°
2026-04-30 12:36 -22.06165 -42.88227 19600 ft 423 kts 29°
2026-04-30 12:36 -22.03682 -42.86512 19984 ft 425 kts 29°
2026-04-30 12:36 -22.01189 -42.84789 20396 ft 426 kts 29°
2026-04-30 12:36 -21.98723 -42.83084 20770 ft 428 kts 29°
2026-04-30 12:37 -21.96210 -42.81348 21177 ft 430 kts 29°
2026-04-30 12:37 -21.93684 -42.79602 21572 ft 432 kts 28°
2026-04-30 12:37 -21.91146 -42.77849 21964 ft 434 kts 28°
2026-04-30 12:37 -21.88596 -42.76089 22342 ft 436 kts 28°
2026-04-30 12:38 -21.86039 -42.74324 22727 ft 438 kts 29°
2026-04-30 12:38 -21.83466 -42.72550 23113 ft 440 kts 29°
2026-04-30 12:38 -21.80881 -42.70764 23494 ft 442 kts 29°
2026-04-30 12:38 -21.78319 -42.68994 23828 ft 445 kts 28°
2026-04-30 12:39 -21.75709 -42.67196 24132 ft 447 kts 29°
2026-04-30 12:39 -21.73085 -42.65392 24420 ft 448 kts 29°
2026-04-30 12:39 -21.70450 -42.63583 24717 ft 450 kts 28°
2026-04-30 12:39 -21.67805 -42.61767 25020 ft 452 kts 28°
2026-04-30 12:40 -21.65155 -42.59945 25310 ft 453 kts 29°
2026-04-30 12:40 -21.62483 -42.58131 25591 ft 455 kts 27°
2026-04-30 12:40 -21.59748 -42.56417 25892 ft 455 kts 25°
2026-04-30 12:40 -21.56959 -42.54796 26177 ft 457 kts 24°
2026-04-30 12:41 -21.54173 -42.53244 26476 ft 458 kts 23°
2026-04-30 12:41 -21.51330 -42.51678 26753 ft 460 kts 23°
2026-04-30 12:41 -21.48481 -42.50098 27023 ft 462 kts 24°
2026-04-30 12:41 -21.45629 -42.48491 27275 ft 464 kts 24°
2026-04-30 12:42 -21.42776 -42.46863 27538 ft 466 kts 25°
2026-04-30 12:42 -21.39914 -42.45214 27651 ft 468 kts 25°
2026-04-30 12:42 -21.37041 -42.43550 28041 ft 470 kts 25°
2026-04-30 12:42 -21.34166 -42.41884 28286 ft 471 kts 25°
2026-04-30 12:43 -21.31266 -42.40209 28508 ft 474 kts 25°
2026-04-30 12:43 -21.28401 -42.38559 28741 ft 475 kts 25°
2026-04-30 12:43 -21.25481 -42.36884 28988 ft 477 kts 25°
2026-04-30 12:43 -21.22544 -42.35200 29185 ft 479 kts 25°
2026-04-30 12:44 -21.19611 -42.33517 29501 ft 479 kts 25°
2026-04-30 12:44 -21.16672 -42.31828 29876 ft 478 kts 25°
2026-04-30 12:44 -21.13749 -42.30150 30208 ft 477 kts 25°
2026-04-30 12:44 -21.10824 -42.28474 30508 ft 476 kts 25°
2026-04-30 12:45 -21.07938 -42.26822 30784 ft 476 kts 25°
2026-04-30 12:45 -21.05022 -42.25153 31073 ft 476 kts 25°
2026-04-30 12:45 -21.02101 -42.23482 31333 ft 476 kts 25°
2026-04-30 12:45 -20.99175 -42.21811 31584 ft 477 kts 25°
2026-04-30 12:46 -20.96246 -42.20137 31882 ft 476 kts 25°
2026-04-30 12:46 -20.93323 -42.18468 32169 ft 476 kts 25°
2026-04-30 12:46 -20.90400 -42.16803 32466 ft 476 kts 25°
2026-04-30 12:46 -20.87507 -42.15155 32752 ft 475 kts 25°
2026-04-30 12:47 -20.84727 -42.13571 33022 ft 475 kts 25°
2026-04-30 12:47 -20.81847 -42.11931 33297 ft 475 kts 25°
2026-04-30 12:47 -20.78927 -42.10267 33566 ft 476 kts 25°
2026-04-30 12:47 -20.76010 -42.08601 33859 ft 475 kts 25°
2026-04-30 12:48 -20.73094 -42.06935 34147 ft 475 kts 25°
2026-04-30 12:48 -20.70182 -42.05275 34427 ft 474 kts 25°
2026-04-30 12:48 -20.67272 -42.03617 34693 ft 473 kts 25°
2026-04-30 12:48 -20.64371 -42.01961 34959 ft 472 kts 25°
2026-04-30 12:49 -20.61418 -42.00448 35158 ft 469 kts 18°
2026-04-30 12:49 -20.58351 -41.99278 35356 ft 469 kts 17°
2026-04-30 12:49 -20.55309 -41.98139 35602 ft 468 kts 17°
2026-04-30 12:49 -20.52244 -41.96990 35852 ft 467 kts 17°
2026-04-30 12:50 -20.49175 -41.95837 36093 ft 467 kts 17°
2026-04-30 12:50 -20.46120 -41.94685 36325 ft 466 kts 17°
2026-04-30 12:50 -20.43064 -41.93536 36554 ft 465 kts 17°
2026-04-30 12:50 -20.40013 -41.92391 36765 ft 464 kts 17°
2026-04-30 12:51 -20.36968 -41.91248 36963 ft 464 kts 17°
2026-04-30 12:51 -20.33924 -41.90106 37127 ft 464 kts 17°
2026-04-30 12:51 -20.27864 -41.87837 37171 ft 465 kts 17°
2026-04-30 12:52 -20.21761 -41.85549 37169 ft 465 kts 17°
2026-04-30 12:52 -20.15649 -41.83259 37165 ft 465 kts 17°
2026-04-30 12:53 -20.09539 -41.80981 37164 ft 466 kts 17°
2026-04-30 12:53 -20.03463 -41.78713 37161 ft 466 kts 17°
2026-04-30 12:54 -19.97354 -41.76420 37155 ft 466 kts 17°
2026-04-30 12:54 -19.91238 -41.74137 37154 ft 466 kts 17°
2026-04-30 12:55 -19.85127 -41.71856 37149 ft 466 kts 17°
2026-04-30 12:55 -19.79048 -41.69592 37153 ft 466 kts 17°
2026-04-30 12:56 -19.72931 -41.67321 37150 ft 466 kts 17°
2026-04-30 12:56 -19.66811 -41.65047 37147 ft 466 kts 17°
2026-04-30 12:57 -19.60693 -41.62774 37147 ft 466 kts 17°
2026-04-30 12:57 -19.54612 -41.60511 37153 ft 466 kts 17°
2026-04-30 12:58 -19.48491 -41.58241 37141 ft 466 kts 17°
2026-04-30 12:58 -19.42365 -41.55971 37146 ft 466 kts 17°
2026-04-30 12:59 -19.36239 -41.53700 37150 ft 467 kts 17°
2026-04-30 12:59 -19.30146 -41.51445 37150 ft 467 kts 17°
2026-04-30 13:00 -19.24015 -41.49175 37143 ft 467 kts 18°
2026-04-30 13:00 -19.17884 -41.46906 37152 ft 467 kts 18°
2026-04-30 13:01 -19.11789 -41.44649 37147 ft 467 kts 18°
2026-04-30 13:01 -19.05652 -41.42386 37147 ft 467 kts 18°
2026-04-30 13:02 -18.99521 -41.40123 37144 ft 467 kts 18°
2026-04-30 13:02 -18.93395 -41.37872 37141 ft 467 kts 18°
2026-04-30 13:03 -18.87300 -41.35627 37144 ft 467 kts 18°
2026-04-30 13:03 -18.81169 -41.33369 37145 ft 467 kts 18°
2026-04-30 13:04 -18.75038 -41.31118 37138 ft 467 kts 18°
2026-04-30 13:04 -18.68904 -41.28868 37151 ft 467 kts 18°
2026-04-30 13:05 -18.62820 -41.26632 37145 ft 467 kts 18°
2026-04-30 13:06 -18.53615 -41.23253 37143 ft 467 kts 18°
2026-04-30 13:06 -18.47484 -41.21011 37160 ft 466 kts 18°
2026-04-30 13:07 -18.41394 -41.18779 37160 ft 466 kts 18°
2026-04-30 13:07 -18.35272 -41.16545 37144 ft 466 kts 18°
2026-04-30 13:08 -18.29145 -41.14299 37146 ft 466 kts 19°
2026-04-30 13:08 -18.23020 -41.12058 37156 ft 466 kts 19°
2026-04-30 13:09 -18.16934 -41.09844 37151 ft 466 kts 18°
2026-04-30 13:09 -18.10807 -41.07611 37148 ft 466 kts 19°
2026-04-30 13:10 -18.04683 -41.05375 37146 ft 466 kts 19°
2026-04-30 13:10 -17.98560 -41.03147 37149 ft 466 kts 19°
2026-04-30 13:11 -17.92469 -41.00933 37148 ft 466 kts 19°
2026-04-30 13:11 -17.86411 -40.98510 37155 ft 466 kts 22°
2026-04-30 13:12 -17.80483 -40.95768 37153 ft 466 kts 24°
2026-04-30 13:12 -17.74566 -40.92989 37150 ft 466 kts 24°
2026-04-30 13:13 -17.65681 -40.88980 37141 ft 466 kts 23°
2026-04-30 13:14 -17.56738 -40.85004 37143 ft 465 kts 24°
2026-04-30 13:14 -17.47810 -40.81015 37134 ft 465 kts 24°
2026-04-30 13:15 -17.38928 -40.77047 37137 ft 465 kts 24°
2026-04-30 13:16 -17.32985 -40.74388 37137 ft 464 kts 24°
2026-04-30 13:16 -17.27048 -40.71742 37143 ft 464 kts 24°
2026-04-30 13:17 -17.18167 -40.67792 37142 ft 464 kts 24°
2026-04-30 13:18 -17.09260 -40.63818 37142 ft 464 kts 24°
2026-04-30 13:18 -17.00351 -40.59846 37147 ft 464 kts 24°
2026-04-30 13:19 -16.94442 -40.57220 37145 ft 465 kts 24°
2026-04-30 13:19 -16.88491 -40.54582 37149 ft 465 kts 24°
2026-04-30 13:20 -16.82540 -40.51936 37149 ft 464 kts 24°
2026-04-30 13:20 -16.76594 -40.49306 37158 ft 464 kts 24°
2026-04-30 13:21 -16.70701 -40.46695 37152 ft 463 kts 24°
2026-04-30 13:22 -16.61799 -40.42743 37146 ft 463 kts 24°
2026-04-30 13:22 -16.52900 -40.38808 37144 ft 463 kts 24°
2026-04-30 13:23 -16.44045 -40.34887 37138 ft 463 kts 24°
2026-04-30 13:24 -16.32186 -40.29660 37131 ft 463 kts 24°
2026-04-30 13:25 -16.20378 -40.24449 37123 ft 462 kts 24°
2026-04-30 13:26 -16.05619 -40.17962 37113 ft 462 kts 25°
2026-04-30 13:28 -15.90819 -40.11442 37121 ft 462 kts 25°
2026-04-30 13:28 -15.81972 -40.07564 37120 ft 462 kts 25°
2026-04-30 13:29 -15.70130 -40.02369 37119 ft 462 kts 25°
2026-04-30 13:31 -15.55360 -39.95905 37112 ft 462 kts 25°
2026-04-30 13:32 -15.40558 -39.89419 37107 ft 462 kts 25°
2026-04-30 13:33 -15.28745 -39.84278 37117 ft 462 kts 25°
2026-04-30 13:34 -15.19857 -39.80406 37109 ft 462 kts 25°
2026-04-30 13:35 -15.08058 -39.75246 37110 ft 462 kts 25°
2026-04-30 13:36 -14.96226 -39.70046 37106 ft 461 kts 27°
2026-04-30 13:36 -14.87631 -39.65591 37097 ft 460 kts 30°
2026-04-30 13:37 -14.79096 -39.61099 37096 ft 461 kts 29°
2026-04-30 13:38 -14.70461 -39.56707 37093 ft 461 kts 28°
2026-04-30 13:39 -14.59001 -39.50870 37088 ft 461 kts 28°
2026-04-30 13:40 -14.50386 -39.46465 37087 ft 461 kts 28°
2026-04-30 13:40 -14.44639 -39.43532 37059 ft 461 kts 28°
2026-04-30 13:40 -14.41761 -39.42064 36557 ft 463 kts 28°
2026-04-30 13:41 -14.38856 -39.40581 35675 ft 468 kts 28°
2026-04-30 13:41 -14.35966 -39.39108 34828 ft 472 kts 28°
2026-04-30 13:41 -14.33005 -39.37603 33912 ft 477 kts 28°
2026-04-30 13:41 -14.30013 -39.36080 32952 ft 480 kts 28°
2026-04-30 13:42 -14.27015 -39.34553 31962 ft 483 kts 28°
2026-04-30 13:42 -14.23997 -39.33016 31118 ft 484 kts 28°
2026-04-30 13:42 -14.17955 -39.29932 29226 ft 486 kts 28°
2026-04-30 13:43 -14.14946 -39.28398 27972 ft 480 kts 28°
2026-04-30 13:43 -14.11990 -39.26898 26783 ft 481 kts 28°
2026-04-30 13:43 -14.08991 -39.25379 25948 ft 479 kts 28°
2026-04-30 13:43 -14.06024 -39.23877 25232 ft 472 kts 28°
2026-04-30 13:44 -14.03094 -39.22390 24517 ft 467 kts 28°
2026-04-30 13:44 -14.00197 -39.20917 23881 ft 460 kts 28°
2026-04-30 13:44 -13.97331 -39.19460 23080 ft 457 kts 28°
2026-04-30 13:44 -13.94504 -39.18025 22336 ft 452 kts 28°
2026-04-30 13:45 -13.88969 -39.15215 21084 ft 441 kts 28°
2026-04-30 13:45 -13.86236 -39.13829 20496 ft 435 kts 28°
2026-04-30 13:45 -13.83543 -39.12465 19924 ft 430 kts 28°
2026-04-30 13:46 -13.81168 -39.11263 19433 ft 425 kts 28°
2026-04-30 13:46 -13.78570 -39.09947 18908 ft 420 kts 28°
2026-04-30 13:46 -13.76024 -39.08655 18415 ft 415 kts 28°
2026-04-30 13:46 -13.73669 -39.07463 17896 ft 411 kts 28°
2026-04-30 13:47 -13.71129 -39.06169 17377 ft 405 kts 30°
2026-04-30 13:47 -13.68796 -39.04595 16859 ft 397 kts 40°
2026-04-30 13:47 -13.66685 -39.02854 16339 ft 393 kts 40°
2026-04-30 13:47 -13.64557 -39.01101 15807 ft 390 kts 40°
2026-04-30 13:48 -13.62449 -38.99367 15264 ft 388 kts 40°
2026-04-30 13:48 -13.60347 -38.97638 14717 ft 386 kts 40°
2026-04-30 13:48 -13.58257 -38.95919 14161 ft 384 kts 40°
2026-04-30 13:48 -13.56175 -38.94210 13544 ft 383 kts 40°
2026-04-30 13:49 -13.54096 -38.92505 12955 ft 380 kts 40°
2026-04-30 13:49 -13.52033 -38.90814 12363 ft 378 kts 40°
2026-04-30 13:49 -13.50014 -38.89159 11781 ft 375 kts 40°
2026-04-30 13:49 -13.47987 -38.87497 11182 ft 372 kts 40°
2026-04-30 13:50 -13.45978 -38.85849 10814 ft 362 kts 41°
2026-04-30 13:50 -13.42296 -38.82837 10577 ft 322 kts 41°
2026-04-30 13:50 -13.40578 -38.81432 10461 ft 310 kts 41°
2026-04-30 13:51 -13.38934 -38.80087 10239 ft 295 kts 41°
2026-04-30 13:51 -13.37336 -38.78775 9974 ft 291 kts 42°
2026-04-30 13:51 -13.35788 -38.77501 9853 ft 288 kts 42°
2026-04-30 13:51 -13.34230 -38.76219 9725 ft 287 kts 42°
2026-04-30 13:52 -13.32673 -38.74938 9429 ft 286 kts 42°
2026-04-30 13:52 -13.31121 -38.73665 9060 ft 285 kts 42°
2026-04-30 13:52 -13.29577 -38.72398 8688 ft 284 kts 42°
2026-04-30 13:52 -13.28039 -38.71137 8300 ft 282 kts 41°
2026-04-30 13:53 -13.26510 -38.69885 7931 ft 281 kts 42°
2026-04-30 13:53 -13.24987 -38.68634 7578 ft 278 kts 42°
2026-04-30 13:53 -13.23505 -38.67419 7429 ft 268 kts 42°
2026-04-30 13:53 -13.22061 -38.66234 7136 ft 265 kts 41°
2026-04-30 13:54 -13.20647 -38.65074 6795 ft 263 kts 41°
2026-04-30 13:54 -13.19224 -38.63908 6484 ft 261 kts 41°
2026-04-30 13:54 -13.17806 -38.62746 6080 ft 261 kts 42°
2026-04-30 13:54 -13.16412 -38.61605 5882 ft 253 kts 42°
2026-04-30 13:55 -13.15047 -38.60489 5557 ft 250 kts 41°
2026-04-30 13:55 -13.13689 -38.59380 5216 ft 248 kts 41°
2026-04-30 13:55 -13.12340 -38.58282 4907 ft 246 kts 41°
2026-04-30 13:55 -13.11022 -38.57213 4712 ft 238 kts 41°
2026-04-30 13:56 -13.09749 -38.56180 4481 ft 236 kts 41°
2026-04-30 13:56 -13.08461 -38.55133 4329 ft 236 kts 41°
2026-04-30 13:56 -13.07182 -38.54091 4216 ft 235 kts 43°
2026-04-30 13:56 -13.05900 -38.53047 4120 ft 236 kts 41°
2026-04-30 13:57 -13.04545 -38.52104 4016 ft 238 kts 29°
2026-04-30 13:57 -13.02948 -38.51597 3701 ft 245 kts 11°
2026-04-30 13:57 -13.01277 -38.51356 3522 ft 238 kts 10°
2026-04-30 13:57 -12.99662 -38.51119 3356 ft 233 kts 11°
2026-04-30 13:58 -12.98062 -38.50878 3017 ft 229 kts 12°
2026-04-30 13:58 -12.95376 -38.49834 2771 ft 191 kts 43°
2026-04-30 13:58 -12.94513 -38.48876 2625 ft 178 kts 61°
2026-04-30 13:59 -12.93989 -38.47776 2452 ft 168 kts 76°
2026-04-30 13:59 -12.93736 -38.46638 2308 ft 161 kts 81°
2026-04-30 13:59 -12.93516 -38.45540 2236 ft 154 kts 81°
2026-04-30 13:59 -12.93305 -38.44489 2104 ft 149 kts 81°
2026-04-30 14:00 -12.93099 -38.43457 1939 ft 148 kts 82°
2026-04-30 14:00 -12.92701 -38.41471 1577 ft 138 kts 82°
2026-04-30 14:00 -12.92510 -38.40510 1399 ft 138 kts 85°
2026-04-30 14:01 -12.92319 -38.39555 1229 ft 136 kts 82°
2026-04-30 14:01 -12.92127 -38.38599 1034 ft 137 kts 83°
2026-04-30 14:01 -12.91935 -38.37639 879 ft 137 kts 83°
2026-04-30 14:01 -12.91746 -38.36695 699 ft 135 kts 83°
2026-04-30 14:02 -12.91558 -38.35753 530 ft 137 kts 83°
2026-04-30 14:02 -12.91365 -38.34792 345 ft 138 kts 81°
2026-04-30 14:02 -12.91174 -38.33839 164 ft 136 kts 83°
2026-04-30 14:02 -12.90997 -38.32920 47 ft 114 kts 79°
2026-04-30 14:03 -12.90892 -38.32432 52 ft 30 kts 77°
2026-04-30 14:03 -12.90858 -38.32267 52 ft 20 kts 78°
2026-04-30 14:03 -12.90891 -38.32199 51 ft 9 kts 189°
2026-04-30 14:03 -12.90942 -38.32234 50 ft 8 kts 221°
2026-04-30 14:04 -12.90979 -38.32268 52 ft 8 kts 222°
2026-04-30 14:04 -12.91033 -38.32342 50 ft 16 kts 253°
2026-04-30 14:04 -12.91056 -38.32443 52 ft 14 kts 259°
2026-04-30 14:04 -12.91073 -38.32537 51 ft 16 kts 259°
2026-04-30 14:05 -12.91103 -38.32690 49 ft 25 kts 258°
2026-04-30 14:05 -12.91137 -38.32851 49 ft 20 kts 257°
2026-04-30 14:05 -12.91162 -38.32983 46 ft 16 kts 259°
2026-04-30 14:05 -12.91183 -38.33089 44 ft 14 kts 258°
2026-04-30 14:06 -12.91207 -38.33172 42 ft 10 kts 230°
2026-04-30 14:06 -12.91275 -38.33237 44 ft 6 kts 258°
2026-04-30 14:07 -12.91289 -38.33314 44 ft 3 kts 258°
2026-04-30 14:07 -12.91303 -38.33322 44 ft 5 kts 189°
2026-04-30 14:07 -12.91350 -38.33315 41 ft 3 kts 168°
2026-04-30 14:08 -12.91351 -38.33315 41 ft 0 kts 168°